Printer-friendly version

IAU Minor Planet Center

Minor Planet Center

MPEC 2006-B53 : 2006 BY8

The following Minor Planet Electronic Circular may be linked-to from your own Web pages, but must not otherwise be redistributed electronically.


Read MPEC 2006-B52 Read MPEC 2006-B54


M.P.E.C. 2006-B53                                Issued 2006 Jan. 25, 03:40 UT

     The Minor Planet Electronic Circulars contain information on unusual
         minor planets and routine data on comets.  They are published
   on behalf of Commission 20 of the International Astronomical Union by the
          Minor Planet Center, Smithsonian Astrophysical Observatory,
                          Cambridge, MA 02138, U.S.A.

                  Supported in part by the Brinson Foundation
                  Supported in part by the TABASGO Foundation
             Prepared using the Tamkin Foundation Computer Network

                              MPC@CFA.HARVARD.EDU
          URL http://cfa-www.harvard.edu/iau/mpc.html  ISSN 1523-6714

                                   2006 BY8

Observations:
     K06B08Y* C2006 01 23.27729 07 54 53.00 +16 15 24.4          18.2   EB053704
     K06B08Y  C2006 01 23.29034 07 55 23.56 +16 13 06.0          19.5   EB053704
     K06B08Y  C2006 01 23.30365 07 55 54.34 +16 10 46.3          18.8   EB053704
     K06B08Y  C2006 01 23.31655 07 56 23.85 +16 08 31.7          19.0   EB053704
     K06B08Y  C2006 01 23.32944 07 56 52.98 +16 06 17.7          18.6   EB053704
     K06B08Y  C2006 01 24.93992 08 33 00.89 +13 20 34.5                 EB053246
     K06B08Y  C2006 01 24.94054 08 33 01.32 +13 20 32.2                 EB053246
     K06B08Y  C2006 01 24.94156 08 33 02.03 +13 20 28.5                 EB053246
     K06B08Y  C2006 01 24.94746 08 33 08.84 +13 19 53.9                 EB053J95
     K06B08Y  C2006 01 24.95005 08 33 10.54 +13 19 44.2                 EB053J95
     K06B08Y  C2006 01 24.95262 08 33 12.24 +13 19 36.8          19.2 R EB053J95
     K06B08Y  C2006 01 24.95601 08 33 12.67 +13 19 45.5          19.5 R EB053143
     K06B08Y  C2006 01 24.96264 08 33 17.01 +13 19 23.8          19.2 R EB053143

Observer details:
143 Gnosca.  Observer S. Sposetti.  0.40-m f/4 reflector + CCD.
246 Klet Observatory-KLENOT.  Observer M. Tichy.  1.06-m KLENOT Telescope
    + CCD.
704 Lincoln Laboratory ETS, New Mexico.  Observers M. Bezpalko, L. Manguso,
    D. Torres, R. Kracke, A. Milner, H. Love.  Measurers J. Stuart, R. Sayer,
    J. Evans, J. Kommers.  1.0-m f/2.15 reflector + CCD.
J95 Great Shefford.  Observer P. Birtwhistle.  0.40-m f/6.0 Schmidt-Cassegrain
    + CCD.

Orbital elements:
2006 BY8                                                 Earth MOID = 0.0005 AU
Epoch 2006 Mar. 6.0 TT = JDT 2453800.5                  MPC
M  19.93558              (2000.0)            P               Q
n   0.24636316     Peri.  121.84429     +0.45132463     -0.89145260
a   2.5201064      Node   301.27533     +0.80199717     +0.42497744
e   0.6826936      Incl.    2.69782     +0.39128840     +0.15718281
P   4.00           H   26.4           G   0.15           U   8
Residuals in seconds of arc
060123 704  0.3+  0.0     060124 246  0.2+  0.7+    060124 J95  0.2-  0.7+
060123 704  0.1-  0.5-    060124 246  0.5+  0.6+    060124 143  0.5-  1.0-
060123 704  0.3-  0.2-    060124 246  1.0+  0.5+    060124 143  0.1-  0.6+
060123 704  0.0   0.2+    060124 J95  0.3+  0.1-
060123 704  0.1+  0.5+    060124 J95  0.1-  0.8-

Ephemeris:
2006 BY8                 a,e,i = 2.52, 0.68, 3                   q = 0.7996
Date    TT    R. A. (2000) Decl.     Delta      r     Elong.  Phase     V
2006 01 25    08 33.69   +13 19.7    0.0326   1.017   174.1     5.7    19.5
2006 01 26    08 42.99   +12 33.0    0.0416   1.026   173.3     6.5    20.0
2006 01 27    08 48.95   +12 02.7    0.0506   1.035   172.9     6.8    20.5
2006 01 28    08 53.07   +11 41.5    0.0597   1.044   172.8     6.8    20.9
2006 01 29    08 56.08   +11 26.2    0.0688   1.053   172.9     6.7    21.2
2006 01 30    08 58.37   +11 14.6    0.0780   1.063   173.1     6.4    21.5
2006 01 31    09 00.17   +11 05.8    0.0873   1.072   173.4     6.1    21.7
2006 02 01    09 01.62   +10 58.9    0.0966   1.081   173.7     5.8    22.0
2006 02 02    09 02.82   +10 53.4    0.106    1.091   173.9     5.5    22.2
2006 02 03    09 03.82   +10 49.1    0.115    1.100   174.2     5.2    22.3
2006 02 04    09 04.67   +10 45.6    0.125    1.110   174.3     5.1    22.5

Timothy B. Spahr             (C) Copyright 2006 MPC           M.P.E.C. 2006-B53

Read MPEC 2006-B52 Read MPEC 2006-B54


Our Web policy. Index to the CBAT/MPC/ICQ pages.


Valid HTML 4.01!